Regional Weather Roundup
Issued by NWS Sioux Falls, SD

Home | Current Version | Previous Version | Graphics & Text | Print | Product List | Glossary Off
Versions: 1 2 3 4 5 6 7 8 9 10 11 12 13 14 15 16 17 18 19 20 21 22 23 24 25 26 27 28 29 30 31 32 33 34 35 36 37 38 39 40 41 42 43 44 45 46 47 48 49 50

000
ASUS43 KFSD 201902
RWRFSD

WEATHER ROUNDUP FOR SE SOUTH DAKOTA/SW MINNESOTA/NW IOWA
NATIONAL WEATHER SERVICE SIOUX FALLS SD
100 PM CST TUE FEB 20 2018

NOTE: "FAIR" INDICATES FEW OR NO CLOUDS BELOW 12,000 FEET WITH NO
SIGNIFICANT WEATHER AND OR OBSTRUCTIONS TO VISIBILITY.


SDZ038>040-050-052>070-202000-
SOUTHEAST SOUTH DAKOTA

CITY           SKY/WX    TMP DP  RH WIND       PRES   REMARKS
BROOKINGS      FLURRIES   9   2  73 NW22      30.05S WCI -11
CHAMBERLAIN    FAIR      10   3  72 W17       30.19S WCI  -8
HURON          FAIR      10   3  73 NW21      30.16S WCI  -9
MADISON        MOCLDY     9   5  85 NW22G28   30.07R WCI -11
MITCHELL       PTSUNNY   11   3  70 NW22      30.17S WCI  -8
SIOUX FALLS    FLURRIES  11   3  70 NW25G31   30.08F WCI -10
WINNER         FAIR       9   0  67 NW18      30.18S WCI -10
YANKTON        FAIR      11   5  77 NW22      30.17R HAZE    WCI  -8
$$

MNZ071-072-080-081-089-090-097-098-202000-
SOUTHWEST MINNESOTA

CITY           SKY/WX    TMP DP  RH WIND       PRES   REMARKS
FAIRMONT       FLURRIES  17  11  77 NW22      30.03R WCI   0
JACKSON        PTSUNNY   14   9  79 NW14      30.01R WCI  -1
LUVERNE        CLOUDY    12   3  67 NW22      30.07R WCI  -7
MARSHALL       CLOUDY    11   4  73 NW25G31   30.06R WCI -10
MONTEVIDEO     PTSUNNY   12   3  67 N21       30.07R WCI  -6
PIPESTONE      FAIR       9   1  72 NW15      30.03S HAZE    WCI  -8
REDWOOD FALLS  LGT SNOW  13   6  74 W17G28    30.03R WCI  -4
TRACY          FAIR      11   6  80 NW21      30.04S HAZE    WCI  -7
WINDOM         CLOUDY    12  -2  52 CALM      30.01R HAZE
WORTHINGTON    PTSUNNY   13   6  74 NW23      30.02S WCI  -6
$$

IAZ001>003-012>014-020>022-031-032-NEZ013-014-SDZ071-202000-
NORTHWEST IOWA

CITY           SKY/WX    TMP DP  RH WIND       PRES   REMARKS
CHEROKEE       PTSUNNY   15  11  83 NW13G18   30.10R WCI   1
DENISON        CLOUDY    18  14  86 NW18      30.11R WCI   2
ESTHERVILLE    PTSUNNY   15   9  76 NW20      30.03R WCI  -2
LE MARS        PTSUNNY   12   5  73 NW22G29   30.14R WCI  -7
ORANGE CITY    FAIR      12   9  85 NW21      30.09R WCI  -6
SHELDON        CLOUDY    12   7  79 NW18      30.07R WCI  -5
SIOUX CITY     FAIR      13   6  74 NW29G38   30.13R WCI  -8
SPENCER        FAIR      17   9  70 NW21G30   30.05R WCI   0
STORM LAKE     FLURRIES  16  12  86 NW21      30.04R WCI  -2
$$

ABBREVIATIONS USED IN REMARKS
   TC - TEMPERATURE IN CELSIUS
  WCI - WIND CHILL INDEX
   HX - HEAT INDEX
  VSB - VISIBILITY





USA.gov is the U.S. government's official web portal to all federal, state and local government web resources and services.